Total_Precipitation_Accumulation
0.95 0.89 0.77 0.72 0.92 1.03 1.09 1.02 0.97 0.93 0.92 0.97 0.98 0.98 0.97 1.07 1.04 1.10 1.04 1.06 1.14 1.20
1.41 1.27 1.24 1.06 0.89 0.95 0.96 0.91 1.03 0.92 0.79 0.79 0.79 0.90 0.95 0.97 1.06 1.06 1.31 1.55 1.50 1.32
1.19 1.02 0.93 0.98 0.98 1.01 1.03 0.94 0.84 0.82 0.67 0.82 0.95 0.87 0.88 0.90 1.01 1.15 1.02 1.01 1.25 1.38
0.83 0.93 0.74 0.67 0.75 0.72 0.73 1.04 1.00 0.87 0.82 0.67 0.61 0.78 0.76 0.67 0.70 0.81 0.81 0.81 0.82 0.88
0.51 0.64 0.58 0.48 0.56 0.42 0.41 0.47 0.64 0.72 0.73 0.83 0.84 0.72 0.74 0.83 0.76 0.73 0.77 0.82 0.94 0.95
0.22 0.33 0.38 0.34 0.35 0.29 0.19 0.20 0.21 0.21 0.28 0.35 0.38 0.40 0.41 0.40 0.48 0.57 0.60 0.64 0.67 0.64
0.13 0.15 0.19 0.20 0.16 0.21 0.20 0.13 0.09 0.09 0.11 0.15 0.18 0.19 0.17 0.17 0.18 0.21 0.22 0.25 0.31 0.38
0.16 0.17 0.15 0.12 0.10 0.09 0.11 0.22 0.22 0.15 0.11 0.07 0.08 0.15 0.19 0.21 0.25 0.27 0.31 0.34 0.40 0.46
0.09 0.10 0.09 0.12 0.14 0.11 0.10 0.11 0.22 0.33 0.29 0.24 0.23 0.34 0.22 0.13 0.14 0.21 0.28 0.36 0.40 0.45
0.18 0.13 0.25 0.21 0.22 0.25 0.26 0.21 0.24 0.32 0.45 0.46 0.52 0.71 0.61 0.55 0.53 0.51 0.46 0.40 0.34 0.31
0.44 0.38 0.48 0.68 0.58 0.61 0.68 0.85 0.93 0.76 0.77 0.88 0.95 0.88 0.71 0.56 0.48 0.49 0.43 0.33 0.23 0.14
0.75 0.70 0.69 0.80 1.03 1.12 0.86 0.83 0.84 0.74 0.76 0.63 0.54 0.45 0.31 0.24 0.21 0.20 0.14 0.07 0.02 0.01
0.99 0.93 1.10 0.86 0.72 0.87 0.78 0.51 0.50 0.57 0.53 0.40 0.30 0.22 0.16 0.12 0.08 0.05 0.03 0.02 0.01 0.03
0.66 0.62 0.65 0.71 0.57 0.50 0.49 0.46 0.41 0.28 0.18 0.10 0.06 0.04 0.05 0.07 0.07 0.05 0.06 0.05 0.03 0.02